Location: Goodwater
(33.0657°N, 86.0533°W)
Time: 03:37:08
(UTC+00:00)

Daily predictions for brighter satellites

Satellite Brightness Start Highest point End
(mag) Time Altitude Azimuth Time Altitude Azimuth Time Altitude Azimuth
BREEZE-M DEB (TANK) 4.3 00:05:31 10° NNW 00:06:49 13° N 00:06:49 13° N
Cosmos 1441 Rocket 4.3 00:04:46 10° NNW 00:08:23 44° W 00:11:56 10° SSW
Meteor 2-4 Rocket 3.8 00:03:03 10° S 00:08:47 56° E 00:13:23 16° NNE
Cosmos 1461 4.0 00:07:32 10° S 00:10:00 25° SE 00:10:00 25° SE
Cosmos 676 Rocket 4.2 00:08:10 10° SSW 00:13:18 68° WNW 00:17:58 13° N
Meteor 1-19 Rocket 4.2 00:08:33 10° S 00:14:05 80° W 00:19:34 10° N
Starlink (trailer) 4.5 00:11:16 10° SSW 00:14:33 32° SE 00:14:33 32° SE
Cosmos 1943 Rocket 3.0 00:10:41 10° N 00:14:26 29° NE 00:14:26 29° NE
Lacrosse 5 1.8 00:11:09 10° SW 00:16:14 85° SE 00:18:10 39° NE
STARLINK-38 4.4 00:12:52 10° SSW 00:16:09 33° SE 00:16:09 33° SE
CZ-3B R/B 3.1 00:12:42 10° SW 00:17:06 30° SSE 00:19:44 24° ESE
BREEZE-M DEB (TANK) 3.3 00:15:08 10° WNW 00:17:15 38° SW 00:19:37 15° SSE
STARLINK-65 4.4 00:14:29 10° SSW 00:17:45 34° SE 00:17:45 34° SE
DMSP B5D1-3 4.4 00:16:28 23° NNE 00:19:41 71° ESE 00:24:45 10° S
CSL-04 Rocket 3.5 00:14:36 10° SSE 00:19:49 68° ENE 00:25:05 10° N
Cosmos 1954 Rocket 4.4 00:15:35 10° SSW 00:20:40 61° WNW 00:25:00 15° N
Genesis I 3.9 00:18:15 10° NW 00:22:00 53° WSW 00:25:41 10° SSE
STARLINK-69 4.3 00:19:22 10° SSW 00:22:36 38° SSE 00:22:36 38° SSE
IRIDIUM 104 4.2 00:18:42 10° S 00:23:51 66° E 00:26:52 25° NNE
STARLINK-66 4.3 00:20:56 10° SSW 00:24:06 38° SSE 00:24:06 38° SSE
Cosmos 1515 3.9 00:22:34 10° SSW 00:26:19 66° W 00:27:30 40° NNW
Cosmos 1417 Rocket 4.4 00:20:24 10° N 00:26:34 89° E 00:32:44 10° S
STARLINK-70 4.3 00:25:49 10° SSW 00:28:53 41° SSE 00:28:53 41° SSE
Cosmos 1674 Rocket 4.0 00:26:13 10° S 00:29:32 45° SE 00:29:32 45° SE
STARLINK-68 4.2 00:27:32 10° SSW 00:30:40 44° S 00:30:40 44° S
Sakura Rocket 4.3 00:26:03 10° W 00:31:28 59° S 00:34:20 35° ESE
Meteor 1-12 Rocket 4.2 00:26:28 10° N 00:32:12 56° E 00:37:47 10° SSE
IRIDIUM 114 4.2 00:27:45 10° S 00:32:57 83° E 00:35:59 26° N
STARLINK-58 4.3 00:29:05 10° SSW 00:32:06 42° S 00:32:06 42° S
STARLINK-62 4.2 00:30:47 10° SSW 00:33:49 45° S 00:33:49 45° S
Cosmos 2084 Rocket 4.4 00:30:43 10° S 00:33:40 36° SSE 00:33:40 36° SSE
STARLINK-63 4.3 00:32:20 10° SSW 00:35:16 42° S 00:35:16 42° S
USA 81 3.9 00:32:40 10° S 00:37:53 67° E 00:37:58 67° E
YAOGAN 1 2.9 00:34:25 10° S 00:38:41 65° WSW 00:43:00 10° NNW
CSL-04 Debris 4.3 00:33:50 10° S 00:39:17 76° WSW 00:44:44 10° NNW
STARLINK-72 4.5 00:35:33 10° SSW 00:38:19 40° S 00:38:19 40° S
IRIDIUM 103 4.3 00:36:54 10° S 00:42:07 80° W 00:45:08 26° N
STARLINK-59 4.5 00:38:54 10° SW 00:41:38 41° SSW 00:41:38 41° SSW
Cosmos 1741 Rocket 3.8 00:39:07 10° S 00:44:22 80° ESE 00:44:26 80° E
Delta 2 Rocket 3.9 00:40:10 10° W 00:44:35 58° NW 00:44:35 58° NW
OAO 2 Rocket 3.6 00:51:26 10° W 00:56:05 61° SW 00:56:05 61° SW
Meteor 1-13 Rocket 4.4 00:52:39 10° SSW 00:58:17 70° W 00:59:38 51° NNW
ADEOS Rocket 3.7 01:02:44 37° S 01:02:44 37° S 01:06:05 10° S
OAO 3 Rocket 3.9 00:56:34 10° W 01:00:11 50° W 01:00:11 50° W
Cosmos 1850 Rocket 4.3 00:57:27 10° SSW 01:02:38 64° WNW 01:02:38 64° WNW
CZ-4 R/B 4.0 01:05:15 10° SW 01:07:58 18° W 01:10:41 10° NW
Cosmos 1943 3.9 01:05:37 10° SW 01:11:04 50° WNW 01:11:46 47° NW
USA 267 4.4 01:13:42 10° SSE 01:19:42 39° SW 01:25:44 10° WNW
CZ-4C R/B 3.7 01:25:27 10° WSW 01:29:01 28° WNW 01:29:01 28° WNW
Cosmos 2369 Rocket 4.2 01:25:07 10° NNW 01:26:38 19° NNW 01:26:38 19° NNW
CZ-3B R/B 3.9 02:05:11 10° WSW 02:07:34 26° WSW 02:07:34 26° WSW
CZ-4C R/B 4.2 08:58:50 37° E 08:58:50 37° E 09:04:47 10° ESE
FALCON 9 R/B 3.1 09:42:31 73° ENE 09:42:31 73° ENE 09:57:27 10° E
USA 234 3.7 09:47:34 10° NE 09:52:25 53° NNE 09:52:25 53° NNE
Centaur D AC-28 3.9 09:56:10 42° SSW 09:57:19 44° S 10:23:42 10° ESE
Cosmos 1461 4.1 10:19:28 40° SE 10:19:28 40° SE 10:22:25 10° SSE
Cosmos 1869 Rocket 4.5 10:15:36 10° SSE 10:19:43 46° E 10:23:52 10° NNE
Okean O Rocket 4.4 10:21:11 10° NE 10:24:15 18° E 10:27:17 10° SE
SL-16 R/B 4.4 10:31:26 11° SSW 10:31:26 11° SSW 10:31:46 10° SSW
Meteor 1-25 Rocket 4.1 10:22:14 10° S 10:27:48 89° E 10:33:30 10° N
Cosmos 1603 3.7 10:32:39 46° NNW 10:34:28 83° ENE 10:40:09 10° SSE
Nadezhda 4 Rocket 3.9 10:36:47 56° WNW 10:37:26 59° W 10:43:25 10° S
Meteor 1-14 Rocket 4.3 10:37:26 10° S 10:43:21 83° E 10:49:21 10° N
Cosmos 2084 Rocket 4.4 10:44:33 36° SSW 10:44:33 36° SSW 10:47:32 10° S
Okean 1-7 3.0 10:43:34 41° N 10:45:01 80° E 10:49:23 10° S
CZ-4C R/B 3.4 10:44:05 40° W 10:45:48 44° WSW 10:53:38 10° S
Cosmos 676 Rocket 3.9 10:45:05 57° WNW 10:45:48 64° WSW 10:51:02 10° S
Cosmos 1954 Rocket 4.0 10:51:44 47° WNW 10:52:52 58° WSW 10:58:03 10° S
STARLINK 1044 3.7 10:54:07 45° E 10:54:07 45° E 10:56:23 10° SE
Cosmos 2263 Rocket 3.6 11:00:04 20° NNW 11:00:04 20° NNW 11:02:19 10° N
Cosmos 2026 Rocket 4.0 10:52:32 10° N 10:58:48 87° E 11:05:06 10° S
Okean 1 3.2 11:00:08 24° N 11:02:28 88° E 11:06:26 10° S
Cosmos 2279 Rocket 4.0 10:57:32 10° S 11:03:43 84° E 11:09:56 10° N
Cosmos 332 Rocket 4.2 11:01:09 10° S 11:06:00 67° ESE 11:10:52 10° NNE
Cosmos 1484 Rocket 3.5 11:09:21 32° WSW 11:09:21 32° WSW 11:11:47 10° SSW
SJ-12 3.8 11:04:11 10° N 11:08:16 69° WNW 11:12:18 10° SSW
STARLINK 1050 3.3 11:08:37 42° NNW 11:09:41 70° NE 11:13:15 10° SE
STARLINK 1055 3.3 11:11:51 39° NNW 11:13:02 77° NE 11:16:38 10° SE
Cosmos 1634 Rocket 4.2 11:10:09 10° SSW 11:16:02 44° W 11:21:54 10° N
STARLINK 1022 3.2 11:15:00 37° NW 11:16:18 84° NE 11:19:55 10° SE
Cosmos 1741 Rocket 4.0 11:12:00 10° NNW 11:17:15 86° ENE 11:22:28 10° SSE
CZ-4B DEB 4.1 11:13:32 10° N 11:19:02 68° WNW 11:24:32 10° SSW
STARLINK 1042 3.1 11:18:12 34° NW 11:19:39 89° SW 11:23:15 10° SE
Cosmos 44 4.0 11:20:29 27° W 11:21:32 30° WNW 11:25:34 10° N
Okean 3 3.9 11:18:00 10° N 11:22:10 61° E 11:26:20 10° SSE
FENGYUN 3A 3.5 11:16:53 10° N 11:22:14 70° WNW 11:27:34 10° SSW
STARLINK 1056 3.1 11:21:29 31° NW 11:23:04 82° SW 11:26:40 10° SE
Cosmos 1536 4.4 11:21:12 10° SSE 11:24:58 38° E 11:28:45 10° NNE
Cosmos 371 Rocket 3.3 11:21:39 10° SSW 11:26:23 57° WNW 11:31:10 10° N
STARLINK 1054 3.2 11:24:47 29° NW 11:26:29 75° SW 11:30:04 10° SE
Cosmos 1844 Rocket 2.6 11:23:26 10° SSW 11:29:01 82° WNW 11:34:38 10° NNE
Starlink Launch 2 leader 4.2 11:29:53 18° SW 11:29:53 18° SW 11:31:24 10° S
STARLINK 1062 3.2 11:27:56 26° NW 11:29:47 68° SW 11:33:21 10° SE
COSMO-SKYMED 1 2.8 11:26:40 10° S 11:30:51 48° W 11:35:04 10° NNW
METEOR-M 4.2 11:26:02 10° N 11:31:15 55° WNW 11:36:26 10° SSW
FALCON 9 DEB 4.4 11:31:42 14° SW 11:31:42 14° SW 11:32:41 10° SSW
Starlink Launch 2 trailer 4.3 11:33:25 16° SW 11:33:25 16° SW 11:34:54 10° S
Cosmos 1844 3.8 11:27:31 10° SSW 11:33:18 84° ESE 11:39:07 10° NNE
STARLINK 1053 3.3 11:31:24 24° WNW 11:33:22 62° SW 11:36:55 10° SSE
NOSS 3-2 (C) 3.9 11:29:25 10° SSW 11:34:53 60° ESE 11:40:54 10° NE
Cosmos 1302 Rocket 4.3 11:29:58 10° S 11:35:12 73° ESE 11:40:29 10° NNE
Cosmos 1850 Rocket 4.1 11:30:06 10° NNW 11:35:21 60° WSW 11:40:34 10° S
ATLAS 3B R/B 4.4 11:30:01 10° S 11:36:07 36° ESE 11:42:07 10° NE
ALOS 2.6 11:31:53 10° N 11:36:16 42° WNW 11:40:39 10° SW
USA 234 4.4 11:31:32 10° NNE 11:36:24 23° NNW 11:39:47 15° WNW
STARLINK 1061 3.4 11:34:28 22° WNW 11:36:33 56° SW 11:40:05 10° SSE
H-2A R/B 4.3 11:33:38 10° NNE 11:37:12 39° E 11:40:46 10° S
Cosmos 405 4.3 11:35:42 10° N 11:39:04 41° E 11:42:23 10° SSE
STARLINK 1067 3.5 11:37:45 20° WNW 11:39:59 51° SW 11:43:29 10° SSE
Cosmos 1340 4.0 11:39:54 10° WSW 11:42:31 18° WNW 11:45:09 10° NNW
CZ-4B R/B 3.3 11:37:23 10° N 11:42:57 64° WNW 11:48:31 10° SSW
STARLINK 1058 3.7 11:41:00 19° WNW 11:43:20 47° SW 11:46:48 10° SSE
GPS 2-04 Rocket1 2.6 11:41:02 14° WSW 11:44:23 83° NNW 11:48:28 10° ENE
Cosmos 1733 Rocket 3.0 11:40:30 10° SSW 11:44:43 57° W 11:48:59 10° N
Cosmos 1346 Rocket 4.0 11:42:57 10° WSW 11:45:45 19° WNW 11:48:35 10° NNW
Cosmos 1655 Rocket 4.0 11:40:21 10° N 11:46:35 82° W 11:52:48 10° S
STARLINK 1043 3.8 11:44:17 17° WNW 11:46:44 42° SW 11:50:10 10° SSE
NOAA 6 4.2 11:43:53 10° N 11:48:50 51° WNW 11:53:47 10° SSW
Cosmos 2221 Rocket 3.9 11:45:38 10° NNW 11:49:48 43° W 11:53:58 10° SSW
STARLINK 1065 3.9 11:47:30 15° WNW 11:50:05 39° SW 11:53:28 10° SSE
Hubble Space Telescope 2.8 11:46:59 10° SW 11:50:27 26° SSE 11:53:54 10° ESE
Cosmos 1500 3.4 11:48:19 10° SSW 11:52:01 47° W 11:55:43 10° N
Cosmos 1943 4.2 11:48:57 11° NW 11:53:04 25° WSW 11:57:33 10° SSW
Helios 1A Rocket 3.3 11:49:42 10° N 11:53:25 38° WNW 11:57:09 10° SW
STARLINK 1063 4.1 11:50:53 14° WNW 11:53:36 36° SW 11:56:55 10° SSE
